• Join FlightAware (Why Join?)
  • Login
  • US Flag 
08:23PM EST


 

Airport Tracker/Info


-or-


 

Live Flight TrackerFlight Track Log ✈ GJS3633 ✈ 18-Apr-2014 ✈ KCID - KORD

Flight Track Log - Related Links

Times and Time Zones

All times are in EDT time to prevent confusion due to time zone crossing. See the GJS3633 flight status page for this flight to view local times or setup timezone preferences in your user account.

Time Position Orientation Groundspeed Altitude Reporting Facility
EDT Latitude Longitude Course Direction KTS MPH feet Rate Location/Type
06:49AM 41.9164 -91.7531 46° Northeast 211 243 4,100  Level Chicago Center
06:50AM 41.9569 -91.6878 50° Northeast 218 251 6,100 2,380 Climbing Chicago Center
06:51AM 42.0755 -91.4271 45° Northeast  Level FlightAware Approximate
06:51AM 42.0086 -91.6086 49° Northeast 263 303 8,900  Level Chicago Center
06:52AM 42.1384 -91.3341 48° Northeast  Level FlightAware Approximate
06:52AM 42.0658 -91.5256 47° Northeast 299 344 10,900  Level Chicago Center
06:53AM 42.2022 -91.2422 47° Northeast  Level FlightAware Approximate
06:53AM 42.1303 -91.4267 49° Northeast 347 399 12,900  Level Chicago Center
06:54AM 42.2663 -91.1506 47° Northeast  Level FlightAware Approximate
06:54AM 42.1972 -91.3236 49° Northeast 363 418 15,100  Level Chicago Center
06:55AM 42.3523 -91.0446 46° Northeast  Level FlightAware Approximate
06:55AM 42.2683 -91.2167 48° Northeast 381 438 17,200  Level Chicago Center
06:56AM 42.3386 -91.1094 48° Northeast 384 442 18,700 1,686 Climbing Chicago Center
06:58AM 42.4139 -90.9958 48° Northeast 398 458 20,600 1,967 Climbing Chicago Center
06:59AM 42.5047 -90.8514 50° Northeast 419 482 22,700 1,190 Climbing Chicago Center
07:00AM 42.5264 -90.6892 80° East 451 519 23,000 149 Climbing Chicago Center
07:01AM 42.5244 -90.5175 91° East 459 528 23,000  Level Chicago Center
07:02AM 42.5222 -90.3458 91° East 459 528 23,000  Level Chicago Center
07:03AM 42.5119 -90.1772 95° East 458 527 23,000  Level Chicago Center
07:04AM 42.5036 -90.0086 94° East 453 521 23,000  Level Chicago Center
07:05AM 42.4917 -89.8406 95° East 444 511 23,000 -885 Level Chicago Center
07:06AM 42.4814 -89.6678 95° East 457 526 21,200 -1,835 Descending Chicago Center
07:07AM 42.4728 -89.5003 94° East 457 526 19,300 -1,636 Descending Chicago Center
07:08AM 42.4636 -89.3392 94° East 440 506 17,900 -1,721 Descending Chicago Center
07:09AM 42.4542 -89.1864 95° East 420 483 15,800 -1,934 Descending Chicago Center
07:10AM 42.4464 -89.0411 94° East 399 459 14,000 -1,835 Descending Chicago Center
07:11AM 42.4367 -88.9008 95° East 385 443 12,100 -1,426 Descending Chicago Center
07:12AM 42.4269 -88.7650 95° East 372 428 11,100 -541 Descending Chicago Center
07:13AM 42.4058 -88.6022 100° East 374 430 11,000 -198 Descending Chicago Center
07:14AM 42.3672 -88.4736 112° Southeast 375 432 10,700 -893 Descending Chicago Center
07:15AM 42.3278 -88.3667 116° Southeast 321 369 9,200 -1,475 Descending Chicago Center
07:16AM 42.2736 -88.3000 138° Southeast 264 304 7,700 -1,377 Descending Chicago Center
07:17AM 42.2069 -88.2864 171° South 240 276 6,400 -1,230 Descending Chicago Center
07:18AM 42.1433 -88.2742 172° South 233 268 5,200 -689 Descending Chicago Center
07:19AM 42.0764 -88.2631 173° South 226 260 5,000 -98 Descending Chicago Center
07:20AM 42.0125 -88.2517 172° South 230 265 5,000 -197 Level Chicago Center
07:21AM 41.9775 -88.1914 128° Southeast 202 232 4,600 -738 Descending Chicago Center
07:22AM 41.9633 -88.1206 105° East 201 231 3,500 -1,082 Descending Chicago Center
07:23AM 41.9644 -88.0453 89° East 192 221 2,400 -934 Descending Chicago Center
07:24AM 41.9647 -87.9925 90° East 144 166 1,600 -732 Descending Chicago Center
07:25AM 41.9644 -87.9453 90° East 131 151 900 -341 Descending Chicago Center
07:26AM 41.9647 -87.9042 89° East 131 151 900  Level Chicago Center